Showing default

ORBCOMM FM 35, 25985

Orbit data source: Space-Track

ORBCOMM FM 35, 25985 is a payload satellite owned by Orbcomm (US) in LEO that was launched on Sat, 04 Dec 1999 UTC via a PEGASUS XL/HAPS launch vehicle from the Air Force Eastern Test Range (AFETR). Payload-class satellites include a variety of spacecraft equipped with specific instruments for various scientific and technological missions. These include communications satellites like Starlink; space stations such as the ISS; scientific satellites like the Hubble; Earth observation satellites from companies like Planet Labs, Umbra, and HawkEye 360; GPS; miniature CubeSats for education and research; and military/defense satellites.

Loading next visibility...
Identifier
25985, 1999-065F
Orbit
LEO
Country
Flag of USUS / ORB
Related business
Manufacturer
OSC-Germantown
Mission
Non-operational Commercial Communications
Bus & Motor
MICROSTAR, Unknown motor
Mass
44 kg wet, 44 kg dry
Launch date (UTC)
1999-12-04 (27 years ago)
Launch vehicle
PEGASUS XL/HAPS
Launch site
Air Force Eastern Test Range (AFETR)
Object type
Payload
Rocket body
Debris
Shape & HBR
Cyl + 2 Pan, 4.2 m
Radar Cross Section
1.484 m², Medium (>0.1 m² and < 1m²)

Expand to show TLE details & history
Last TLE update: 3 days ago

TLE from 3 days ago
0 ORBCOMM FM 35
1 25985U 99065F   26171.00334581  .00000460  00000-0  19731-3 0  9993
2 25985  45.0374 154.3235 0002243  34.1412 325.9581 14.38072233387715
Epoch: 2026-06-20T00:04Z
TLE epoch observation values (Epoch: 2026-06-20T00:04:49.077Z)
Latitude
-0.00002°
Longitude
-115.10522°
Altitude
763.55 km
Speed
7.475 km/s
True Right ascension
10h 17m 17s
True Declination
0° 00' 00"
Sunlit
Object was in daylight at epoch
Visualization orbit readout
Latitude
Unknown
Longitude
Unknown
Altitude
Unknown
Speed
Unknown
Apparent Right ascension
Unknown
Apparent Declination
Unknown
Sunlit
N/A
Visualization observer readout
Local Sidereal Time
23:07:59
Azimuth
Unknown
Elevation
Unknown
Doppler factor
Unknown
Orbital elements
Apogee altitude
768.017 km
Perigee altitude
764.812 km
Semi-major axis
7,144.552 km
Eccentricity
0.00022
Inclination
45.0374°
RAAN
154.3235°
Arg. of periapsis
34.1412°
True anomaly
325.94371°
Mean anomaly
325.9581°
Eccentric anomaly
325.9509°
Mean motion
3.59402 °/min
Orbital period
100.17 mins
BSTAR
0.00019731
Loading maneuver chart data...
Computing Atmospheric mass density...

Documentation

Showing up to 5 results
|